Theta_e
326 329 330 333 339 341 347 352 354 358 351 349 346 344 339 340 340 342 344 343 344 342 343 340 340 338 336 334 333 332 330 328 329 326 327 327 330 330 330 332 331 330 331
322 325 330 334 341 342 345 350 350 351 351 349 347 344 341 337 338 340 343 343 342 342 336 339 337 338 335 333 330 330 328 327 330 323 322 317 323 327 330 330 330 329 332
319 322 325 337 338 340 343 344 347 351 350 351 347 349 341 344 339 341 340 341 341 340 340 339 337 336 334 332 330 330 328 324 329 327 322 315 314 319 326 329 330 330 332
321 322 326 335 337 337 340 343 346 348 349 347 343 341 336 335 338 337 338 339 341 339 339 338 336 336 335 333 333 332 330 327 323 326 327 326 323 317 315 324 326 328 330
321 323 326 335 336 337 339 342 345 345 346 344 343 341 340 339 341 339 340 341 341 339 338 338 337 336 335 334 333 332 330 329 326 325 325 325 324 324 319 315 320 325 328
321 323 332 334 334 336 338 341 341 342 341 345 345 341 340 341 338 337 338 338 339 340 338 337 336 336 335 334 333 332 331 330 329 328 327 326 321 320 319 313 320 322 327
321 329 330 331 332 334 337 338 338 337 340 342 340 343 342 341 339 339 336 337 336 336 337 337 335 335 336 335 333 333 331 332 328 328 327 330 328 327 324 321 323 321 325
327 329 330 330 331 334 335 335 337 336 338 338 338 342 343 338 340 340 337 335 335 336 337 337 336 336 336 335 335 334 333 332 329 328 329 329 329 329 328 325 322 318 321
328 328 329 330 332 333 335 336 336 336 336 337 340 341 341 339 338 341 340 336 338 335 337 336 336 336 335 334 333 332 333 333 331 328 330 329 330 333 331 330 327 321 316
326 327 328 330 332 334 336 336 336 335 335 335 338 338 334 339 338 336 336 336 337 332 336 336 336 334 335 335 332 333 332 333 331 329 328 328 330 328 329 328 327 325 320
325 326 328 331 332 333 333 335 334 333 333 336 338 337 337 338 333 335 332 336 337 331 333 334 334 334 333 334 333 332 331 327 326 327 327 327 328 329 326 326 326 323 321
325 327 328 329 330 332 332 333 333 330 333 334 336 336 338 337 336 335 333 335 334 334 331 331 333 333 332 331 331 329 331 327 324 325 327 326 328 327 328 325 324 322 322
325 326 327 328 329 331 331 331 330 329 331 331 334 333 336 336 336 334 334 333 335 332 330 329 332 332 331 331 332 331 331 330 327 325 324 325 326 326 325 325 323 321 321
325 325 326 328 329 331 330 328 327 329 330 331 333 335 337 334 335 334 336 334 333 330 329 331 333 332 331 331 331 331 331 328 328 327 324 325 326 325 325 324 323 321 320
323 325 326 327 329 330 328 326 327 328 331 331 334 334 336 335 334 333 334 336 334 331 332 332 332 333 332 328 328 332 330 328 328 328 327 326 325 322 324 324 321 321 321
323 324 326 328 329 328 326 326 327 327 330 332 332 333 332 332 332 333 333 335 334 333 332 333 331 332 327 309 310 322 331 330 328 324 326 324 321 317 313 316 316 321 321
323 325 326 328 329 328 327 326 327 328 328 331 331 332 332 332 332 333 332 334 334 332 332 332 333 329 326 306 303 308 332 331 327 327 328 328 326 323 321 312 312 312 312
325 326 328 330 330 328 326 328 327 326 327 331 329 330 329 329 330 330 330 333 334 333 333 333 333 330 321 304 303 305 332 331 330 331 329 328 325 324 325 324 322 323 323
328 328 331 332 331 328 327 326 326 325 326 328 328 329 330 330 331 332 332 333 332 330 331 333 333 329 324 305 303 315 332 330 330 331 330 329 326 307 310 324 322 321 320
332 329 331 333 331 329 328 326 325 324 326 328 329 330 331 332 332 335 335 335 335 335 334 331 331 319 326 304 302 315 331 328 328 328 321 310 319 307 309 323 321 319 320
329 332 332 331 331 330 328 325 325 323 327 329 331 332 333 332 335 337 336 337 334 334 332 331 331 330 327 318 305 306 331 328 327 325 322 316 303 303 306 314 323 320 322
327 331 331 332 332 330 327 325 326 326 327 329 330 333 335 333 335 337 338 336 334 332 331 329 329 330 329 311 306 304 313 318 326 325 323 310 301 304 307 316 303 303 314
326 330 331 333 331 329 327 326 328 327 327 329 333 333 334 334 336 335 335 333 334 331 329 328 326 326 328 324 303 305 309 311 326 327 309 297 299 299 304 303 302 306 325
325 329 332 332 330 329 328 329 328 326 326 329 333 333 332 333 334 333 334 332 331 330 329 327 325 327 327 326 326 325 321 310 314 308 312 310 308 309 311 309 309 326 328
327 329 331 332 331 329 328 329 327 326 327 330 332 333 333 333 333 332 328 331 326 323 329 330 329 328 326 325 319 322 327 326 319 321 323 324 320 320 321 323 324 325 327
329 328 332 334 332 330 328 327 327 327 329 328 330 331 331 332 331 329 325 298 303 300 299 301 324 330 313 304 305 305 306 304 304 323 324 324 322 319 321 321 322 324 322
Wind_Speed
15 8 8 10 6 6 2 6 7 9 11 9 9 7 6 4 3 4 6 6 4 4 2 4 2 3 4 6 6 4 5 4 3 1 2 3 5 5 5 4 5 6 7
16 14 9 8 7 7 5 6 7 8 9 7 7 6 5 6 6 5 6 6 5 5 5 4 3 4 4 7 7 5 4 5 4 4 2 2 3 4 6 5 5 7 5
18 18 13 5 9 8 7 6 6 8 8 8 5 3 5 4 4 3 3 5 4 2 2 2 2 4 4 5 5 4 5 4 3 7 4 3 4 3 4 7 4 6 3
20 20 16 14 11 10 9 8 8 10 8 9 6 6 4 3 3 4 3 4 5 2 4 3 5 5 3 4 4 4 5 4 4 2 6 8 3 3 3 3 5 1 3
13 13 8 15 13 12 11 9 10 10 7 7 7 5 4 4 3 2 7 4 5 3 3 2 3 3 3 3 4 4 5 4 4 5 3 7 6 7 2 4 3 1 1
15 11 17 16 14 12 12 11 12 9 9 5 8 7 6 4 3 3 4 3 2 1 3 4 4 3 4 4 3 4 5 5 5 4 5 4 3 3 4 5 4 5 2
12 19 18 15 14 14 14 12 12 12 9 6 7 5 6 3 3 1 3 2 3 3 3 4 2 2 3 4 3 3 4 5 4 6 5 3 3 4 10 11 4 3 2
14 16 14 14 15 15 15 14 13 12 10 8 7 6 6 3 2 2 3 3 2 4 3 2 1 3 3 3 4 1 2 3 3 5 4 4 4 1 1 3 5 3 3
13 14 15 14 15 15 15 14 13 12 10 9 6 6 5 5 5 4 3 3 3 4 4 2 1 1 2 2 2 2 3 1 4 4 5 3 3 3 1 4 6 4 5
14 14 14 15 15 14 13 13 12 12 10 9 7 6 5 4 5 3 6 4 3 5 5 3 2 3 1 3 3 1 2 3 3 4 5 3 4 4 3 4 6 3 7
15 15 15 15 15 14 14 12 11 11 10 9 6 9 5 5 5 3 5 5 1 5 4 5 4 3 4 3 2 3 4 3 4 2 3 5 5 4 5 3 4 7 9
16 16 16 15 15 14 13 12 10 11 10 8 10 8 6 6 4 4 5 5 4 3 4 4 5 4 5 3 4 1 3 4 2 5 4 5 2 6 7 6 8 10 10
18 17 16 15 14 13 12 12 10 10 10 9 11 8 7 6 4 5 4 5 6 5 4 4 5 7 5 3 3 2 2 3 5 5 3 2 4 8 7 7 9 10 8
17 16 15 14 14 13 13 12 10 10 9 8 12 9 8 5 6 5 3 4 5 4 1 6 6 7 6 3 2 2 2 4 6 4 4 2 6 9 9 9 8 12 11
16 15 14 14 13 13 12 11 10 10 8 9 11 8 9 6 7 5 3 1 4 5 7 6 5 6 6 5 6 3 2 6 7 6 5 5 9 11 9 9 13 16 12
16 16 14 15 14 13 12 11 10 10 8 14 11 8 9 8 8 6 5 3 3 5 6 5 4 7 7 8 9 7 5 9 8 8 8 9 11 12 14 15 14 11 14
15 15 14 13 12 12 11 10 10 10 8 13 9 8 9 11 9 8 7 5 4 4 4 6 6 8 5 8 9 10 5 8 8 8 8 9 8 11 13 17 17 16 14
14 14 13 13 13 12 12 10 11 10 9 13 12 9 10 9 9 8 7 6 4 4 6 5 6 8 4 6 7 9 6 7 8 7 9 10 11 11 14 14 13 13 10
12 13 13 13 12 12 12 11 11 10 11 10 11 11 11 9 7 6 8 6 5 4 3 5 5 9 5 4 7 6 6 6 7 8 10 11 11 13 15 15 13 12 10
3 14 15 14 13 11 12 10 11 10 11 11 12 11 14 11 6 7 6 5 5 5 5 6 6 10 6 4 7 5 6 8 7 8 8 13 11 16 13 14 14 13 12
6 15 15 14 13 12 12 11 11 10 10 11 11 11 13 11 9 6 6 5 6 6 6 7 6 8 7 3 5 6 7 8 8 8 6 5 12 12 13 13 12 13 13
8 16 14 14 13 13 12 12 11 10 10 11 11 14 14 10 8 10 5 9 6 8 7 8 7 6 7 4 1 4 5 7 8 9 7 5 7 10 10 9 16 16 14
7 8 14 15 14 14 13 12 11 11 11 11 10 13 10 11 10 7 9 8 6 7 7 7 7 6 6 4 6 7 9 6 9 8 9 9 11 11 8 19 17 17 10
7 9 15 16 14 14 14 11 13 12 12 11 10 13 10 12 11 7 5 8 8 8 7 7 5 8 7 6 5 4 5 10 9 11 7 5 6 4 9 7 9 9 10
5 8 11 15 16 15 14 13 14 13 10 11 10 10 8 10 9 7 3 5 6 2 8 8 9 9 8 9 10 9 7 7 8 8 4 3 5 5 5 5 9 7 5
6 7 8 15 16 15 14 14 14 13 11 11 9 9 9 8 8 7 5 12 10 12 13 6 10 7 14 18 15 12 12 13 17 7 6 6 7 7 7 7 7 7 7
Wind_Direction
284 236 236 265 236 111 138 147 144 131 149 159 167 173 184 164 224 184 186 184 181 216 165 232 238 222 226 234 240 226 233 255 214 229 252 250 251 268 260 203 223 210 204
275 282 234 261 122 129 117 105 128 138 154 152 164 171 173 180 202 188 185 175 180 217 226 185 255 220 232 244 239 211 229 236 203 203 193 226 237 246 245 248 230 219 193
272 273 273 167 135 128 132 145 153 153 147 143 149 161 170 171 181 167 141 184 177 179 157 224 239 237 234 257 258 217 214 226 225 209 177 194 223 167 212 226 248 220 163
244 244 240 131 137 133 138 149 148 144 154 140 172 150 153 172 174 197 111 103 168 158 144 197 232 228 220 230 226 213 219 206 226 211 226 257 257 176 201 221 232 211 153
252 257 220 132 136 132 136 142 139 151 157 153 139 141 186 181 169 122 111 110 71 25 317 253 239 217 212 246 224 219 209 208 225 217 205 223 251 245 254 169 184 70 333
240 234 116 127 129 134 133 138 149 164 136 170 138 172 200 50 81 125 111 121 105 357 258 239 208 209 209 230 226 214 212 206 212 230 221 231 206 246 81 239 178 130 62
220 113 125 132 136 133 137 146 159 135 155 156 131 172 105 108 107 160 134 164 148 195 227 256 107 185 203 231 192 220 220 217 228 216 223 218 235 263 165 201 139 124 157
106 121 131 132 136 138 146 152 148 153 162 149 159 137 136 164 175 92 92 126 186 111 216 102 207 237 227 223 171 240 206 246 253 274 251 221 221 216 99 122 140 126 102
120 129 129 139 137 144 155 146 152 158 160 155 154 148 141 120 109 97 95 137 135 167 122 155 239 335 242 138 123 210 216 249 36 26 24 33 19 25 158 162 167 160 136
134 137 141 140 140 148 142 152 155 156 156 155 158 152 151 101 128 119 121 141 153 130 132 136 149 73 82 71 96 117 132 83 48 52 24 33 68 45 26 195 141 149 127
145 140 144 141 143 145 149 149 156 159 157 166 156 129 128 143 106 139 112 120 200 93 149 177 141 135 97 80 53 121 88 58 64 42 35 80 101 101 74 48 94 92 104
143 149 143 149 147 152 149 160 154 158 165 165 139 143 138 119 160 147 127 149 187 194 213 160 128 123 79 38 80 63 147 147 72 58 44 30 148 102 91 96 100 107 109
146 142 150 150 153 150 157 157 166 157 161 185 136 139 118 128 150 154 195 186 168 188 220 154 127 85 84 54 64 62 71 162 133 127 112 36 85 93 102 95 110 114 110
147 147 154 152 157 153 161 157 170 154 172 184 126 123 124 153 153 155 186 263 176 148 123 125 109 115 103 97 155 153 85 87 120 129 118 139 112 121 119 112 115 129 119
155 151 155 154 157 158 154 161 165 160 173 132 121 127 136 158 140 140 155 20 76 56 123 107 106 125 123 62 19 43 123 111 98 106 91 73 83 96 110 123 120 128 118
157 154 160 157 158 160 159 161 159 153 168 124 137 144 160 155 139 150 147 152 128 120 101 120 113 80 84 53 37 14 100 110 104 100 97 99 95 86 84 97 91 121 129
151 161 161 159 154 160 159 160 151 152 165 127 145 158 144 144 155 164 156 153 141 115 128 121 110 93 88 44 23 11 104 109 110 115 117 106 105 102 100 93 90 82 82
159 156 157 153 151 158 150 161 151 160 172 152 153 164 155 148 141 157 158 157 153 150 129 140 128 106 80 32 17 351 105 114 131 121 119 118 116 119 115 114 104 101 102
156 153 153 150 149 157 149 164 159 170 174 164 149 160 123 132 129 122 116 129 133 123 143 131 134 108 102 21 13 347 109 102 106 104 107 117 121 110 116 121 118 107 102
242 148 150 145 149 157 152 164 162 180 178 165 162 155 137 144 154 123 129 145 142 133 141 135 86 104 107 35 17 20 113 103 97 87 82 90 128 125 123 128 132 126 132
299 142 147 151 153 154 157 174 164 187 181 165 158 135 127 138 126 125 138 126 115 117 112 117 112 112 114 80 23 20 116 121 119 110 102 98 125 136 129 136 144 147 142
301 150 150 149 154 158 164 182 165 187 183 163 157 131 128 141 130 137 146 117 130 119 119 120 118 118 104 93 100 51 108 139 126 124 114 116 121 131 127 130 132 137 139
270 193 155 150 158 164 172 184 164 187 181 162 145 135 152 131 135 148 147 132 147 141 144 152 141 134 128 105 87 70 83 98 119 112 100 122 125 128 113 134 149 152 156
237 266 157 156 165 170 174 188 165 190 177 159 151 149 165 143 146 156 182 155 171 169 163 146 147 143 140 130 137 127 103 84 90 110 119 119 110 99 111 131 155 175 163
225 248 181 163 167 173 176 187 173 189 170 157 157 152 160 151 151 164 199 174 63 129 168 165 163 150 150 150 153 150 146 135 132 120 123 143 119 123 148 163 182 217 189
283 234 249 164 165 174 178 187 178 186 163 159 162 167 172 168 166 157 134 42 79 102 98 102 167 152 134 142 157 160 154 141 153 150 165 169 157 158 170 185 205 219 208